• Join FlightAware (Why Join?)
  • Login
  • US Flag 
01:04AM EDT


 

Airport Tracker/Info


-or-


 

Live Flight TrackerFlight Track Log ✈ UAL4234 ✈ 07-Apr-2013 ✈ KCLT - KIAH

Flight Track Log - Related Links

Times and Time Zones

All times are in EDT time to prevent confusion due to time zone crossing. See the UAL4234 flight status page for this flight to view local times or setup timezone preferences in your user account.

Time Position Orientation Groundspeed Altitude Reporting Facility
EDT Latitude Longitude Course Direction KTS MPH feet Rate Location/Type
07:07AM 35.1911 -80.9508 251° West 162 186 1,500  Level Atlanta Center
07:08AM 35.1494 -80.9525 182° South 181 208 3,200 1,980 Climbing Atlanta Center
07:09AM 35.0983 -80.9925 213° Southwest 248 285 5,200 1,920 Climbing Atlanta Center
07:10AM 35.2667 -81.1705 270° West  Level FlightAware Approximate
07:10AM 35.0975 -81.0381 269° West 255 293 6,100  Level Atlanta Center
07:10AM 35.0961 -81.0764 267° West 258 297 7,900 2,760 Climbing Atlanta Center
07:11AM 35.2056 -81.2429 199° South  Level FlightAware Approximate
07:11AM 35.0950 -81.1144 268° West 255 293 8,900  Level Atlanta Center
07:11AM 35.0919 -81.1628 266° West 257 296 10,300 2,100 Climbing Atlanta Center
07:12AM 35.1075 -81.2773 192° South  Level FlightAware Approximate
07:12AM 35.0908 -81.1983 268° West 261 300 11,000  Level Atlanta Center
07:13AM 35.0577 -81.3730 251° West  Level FlightAware Approximate
07:13AM 35.0828 -81.3078 265° West 320 368 11,900  Level Atlanta Center
07:14AM 35.0497 -81.4153 249° West 336 387 13,800 2,040 Climbing Atlanta Center
07:15AM 35.0186 -81.5203 250° West 342 394 16,000 2,100 Climbing Atlanta Center
07:16AM 34.9872 -81.6253 250° West 329 379 18,000 1,800 Climbing Atlanta Center
07:17AM 34.9558 -81.7250 249° West 329 379 19,700 1,680 Climbing Atlanta Center
07:18AM 34.9222 -81.8297 249° West 332 382 21,400 1,620 Climbing Atlanta Center
07:19AM 34.8717 -81.9222 236° Southwest 332 382 23,000 1,440 Climbing Atlanta Center
07:20AM 34.8208 -82.0069 234° Southwest 332 382 24,300 1,380 Climbing Atlanta Center
07:21AM 34.7661 -82.1019 235° Southwest 337 388 25,800 1,440 Climbing Atlanta Center
07:22AM 34.7133 -82.1892 234° Southwest 337 388 27,200 1,380 Climbing Atlanta Center
07:23AM 34.6625 -82.2836 237° Southwest 337 388 28,600 1,440 Climbing Atlanta Center
07:24AM 34.6156 -82.3653 235° Southwest 337 388 30,100 1,440 Climbing Atlanta Center
07:25AM 34.5644 -82.4522 234° Southwest 337 388 31,500 900 Climbing Atlanta Center
07:26AM 34.5136 -82.5414 235° Southwest 331 381 32,000 240 Climbing Atlanta Center
07:27AM 34.4481 -82.6508 234° Southwest 348 400 32,000  Level Atlanta Center
07:28AM 34.3867 -82.7575 235° Southwest 375 432 32,000  Level Atlanta Center
07:29AM 34.3189 -82.8717 234° Southwest 402 463 32,000  Level Atlanta Center
07:30AM 34.2614 -82.9706 235° Southwest 416 479 32,000  Level Atlanta Center
07:31AM 34.1956 -83.0844 235° Southwest 421 484 32,000  Level Atlanta Center
07:32AM 34.1317 -83.2006 236° Southwest 421 484 32,000  Level Atlanta Center
07:33AM 34.0614 -83.3117 233° Southwest 421 484 32,000  Level Atlanta Center
07:34AM 33.9994 -83.4250 237° Southwest 421 484 32,000  Level Atlanta Center
07:35AM 33.9331 -83.5381 235° Southwest 421 484 32,000  Level Atlanta Center
07:36AM 33.8583 -83.6611 234° Southwest 421 484 32,000  Level Atlanta Center
07:37AM 33.7897 -83.7764 234° Southwest 421 484 32,000  Level Atlanta Center
07:38AM 33.7231 -83.8864 234° Southwest 421 484 32,000  Level Atlanta Center
07:39AM 33.6564 -83.9989 235° Southwest 421 484 32,000  Level Atlanta Center
07:40AM 33.5897 -84.1086 234° Southwest 421 484 32,000  Level Atlanta Center
07:41AM 33.5228 -84.2233 235° Southwest 421 484 32,000  Level Atlanta Center
07:42AM 33.4619 -84.3253 234° Southwest 421 484 32,000  Level Atlanta Center
07:43AM 33.3950 -84.4369 234° Southwest 421 484 32,000  Level Atlanta Center
07:44AM 33.3256 -84.5483 233° Southwest 421 484 32,000  Level Atlanta Center
07:45AM 33.2606 -84.6600 235° Southwest 416 479 32,000  Level Atlanta Center
07:46AM 33.1867 -84.7811 234° Southwest 423 487 32,000  Level Atlanta Center
07:47AM 33.1150 -84.8919 232° Southwest 423 487 32,100  Climbing Atlanta Center
07:48AM 33.0494 -85.0053 235° Southwest 423 487 32,000 -60 Descending Atlanta Center
07:49AM 32.9839 -85.1161 235° Southwest 418 481 32,000  Level Atlanta Center
07:50AM 32.9142 -85.2192 231° Southwest 409 471 32,000  Level Atlanta Center
07:51AM 32.8442 -85.3269 232° Southwest 409 471 32,000  Level Atlanta Center
07:52AM 32.7781 -85.4372 235° Southwest 409 471 32,000  Level Atlanta Center
07:53AM 32.7100 -85.5472 234° Southwest 409 471 32,000  Level Atlanta Center
07:54AM 32.6397 -85.6569 233° Southwest 409 471 32,000  Level Atlanta Center
07:55AM 32.5714 -85.7667 234° Southwest 409 471 32,000  Level Atlanta Center
07:56AM 32.4969 -85.8786 232° Southwest 418 481 32,000  Level Atlanta Center
07:57AM 32.4306 -85.9878 234° Southwest 424 488 32,000  Level Atlanta Center
07:58AM 32.3597 -86.0994 233° Southwest 430 495 32,000  Level Atlanta Center
07:59AM 32.2911 -86.2083 233° Southwest 430 495 32,000  Level Atlanta Center
08:00AM 32.2222 -86.3244 235° Southwest 430 495 32,000  Level Atlanta Center
08:01AM 32.1556 -86.4283 233° Southwest 424 488 32,000  Level Atlanta Center
08:02AM 32.0783 -86.5342 229° Southwest 424 488 32,000  Level Atlanta Center
08:03AM 32.0011 -86.6372 229° Southwest 424 488 32,000  Level Atlanta Center
08:04AM 31.9281 -86.7306 227° Southwest 424 488 32,000  Level Atlanta Center
08:05AM 31.8528 -86.8336 229° Southwest 429 494 32,000  Level Atlanta Center
08:07AM 31.6622 -87.0928 229° Southwest 418 481 32,000  Level Houston Center
08:08AM 31.5858 -87.1989 230° Southwest 423 487 32,000  Level Houston Center
08:09AM 31.5117 -87.3042 230° Southwest 419 482 32,000  Level Houston Center
08:10AM 31.4650 -87.4275 246° West 415 478 32,000  Level Houston Center
08:11AM 31.4192 -87.5511 247° West 416 479 32,000  Level Houston Center
08:12AM 31.3731 -87.6764 247° West 419 482 32,000  Level Houston Center
08:13AM 31.3286 -87.8006 247° West 417 480 32,000  Level Houston Center
08:14AM 31.2811 -87.9225 246° West 415 478 32,000  Level Houston Center
08:15AM 31.2356 -88.0450 247° West 414 476 32,000  Level Houston Center
08:16AM 31.1864 -88.1719 246° West 416 479 32,000  Level Houston Center
08:17AM 31.1386 -88.2956 246° West 418 481 32,000  Level Houston Center
08:18AM 31.0914 -88.4167 246° West 411 473 32,000  Level Houston Center
08:19AM 31.0439 -88.5389 246° West 413 475 32,000  Level Houston Center
08:20AM 30.9931 -88.6722 246° West 413 475 32,000  Level Houston Center
08:21AM 30.9464 -88.7928 246° West 412 474 32,000  Level Houston Center
08:22AM 30.8994 -88.9142 246° West 413 475 32,000  Level Houston Center
08:23AM 30.8475 -89.0475 246° West 413 475 32,000  Level Houston Center
08:24AM 30.8008 -89.1689 246° West 412 474 32,000  Level Houston Center
08:25AM 30.7531 -89.2906 245° Southwest 415 478 32,000  Level Houston Center
08:26AM 30.7069 -89.4108 246° West 410 472 32,000  Level Houston Center
08:27AM 30.6594 -89.5311 245° Southwest 411 473 32,000  Level Houston Center
08:28AM 30.6128 -89.6508 246° West 411 473 32,000  Level Houston Center
08:29AM 30.5658 -89.7681 245° Southwest 409 471 32,000  Level Houston Center
08:30AM 30.5089 -89.9089 245° Southwest 410 472 32,000  Level Houston Center
08:31AM 30.4619 -90.0258 245° Southwest 407 468 32,000  Level Houston Center
08:32AM 30.4156 -90.1428 245° Southwest 406 467 32,000  Level Houston Center
08:33AM 30.3675 -90.2611 245° Southwest 408 470 32,000  Level Houston Center
08:34AM 30.3200 -90.3797 245° Southwest 407 468 32,000  Level Houston Center
08:36AM 30.2722 -90.4978 245° Southwest 407 468 32,000  Level Houston Center
08:37AM 30.2239 -90.6150 245° Southwest 407 468 32,000  Level Houston Center
08:38AM 30.1658 -90.7564 245° Southwest 406 467 32,000  Level Houston Center
08:39AM 30.1178 -90.8739 245° Southwest 405 466 32,000  Level Houston Center
08:40AM 30.0694 -90.9908 244° Southwest 405 466 32,000  Level Houston Center
08:41AM 30.0217 -91.1092 245° Southwest 406 467 32,000  Level Houston Center
08:42AM 29.9736 -91.2261 245° Southwest 405 466 32,000  Level Houston Center
08:43AM 29.9244 -91.3439 244° Southwest 408 470 32,000  Level Houston Center
08:44AM 29.8756 -91.4619 244° Southwest 409 471 32,000  Level Houston Center
08:45AM 29.8267 -91.5794 244° Southwest 409 471 32,000  Level Houston Center
08:46AM 29.7778 -91.6969 244° Southwest 408 470 32,000  Level Houston Center
08:47AM 29.7247 -91.8233 244° Southwest 409 471 32,000  Level Houston Center
08:48AM 29.6756 -91.9406 244° Southwest 408 470 32,000  Level Houston Center
08:49AM 29.6267 -92.0578 244° Southwest 407 468 32,000  Level Houston Center
08:50AM 29.5767 -92.1742 244° Southwest 406 467 32,000  Level Houston Center
08:51AM 29.5278 -92.2917 244° Southwest 406 467 32,000  Level Houston Center
08:52AM 29.4675 -92.4342 244° Southwest 412 474 32,000  Level Houston Center
08:53AM 29.4581 -92.5622 265° West 406 467 32,000  Level Houston Center
08:54AM 29.4636 -92.6889 273° West 400 460 32,000  Level Houston Center
08:55AM 29.4692 -92.8194 273° West 404 465 32,000  Level Houston Center
08:56AM 29.4756 -92.9486 273° West 406 467 32,000  Level Houston Center
08:57AM 29.4817 -93.0794 273° West 408 470 32,000 -780 Level Houston Center
08:58AM 29.4878 -93.2061 273° West 402 463 30,500 -1,740 Descending Houston Center
08:59AM 29.4939 -93.3397 273° West 416 479 28,500 -1,920 Descending Houston Center
09:00AM 29.4986 -93.4758 272° West 425 489 26,600 -1,920 Descending Houston Center
09:01AM 29.5044 -93.6094 273° West 420 483 24,600 -1,980 Descending Houston Center
09:02AM 29.5097 -93.7358 273° West 404 465 22,600 -2,220 Descending Houston Center
09:03AM 29.5144 -93.8636 272° West 400 460 20,200 -2,520 Descending Houston Center
09:04AM 29.5181 -93.9556 273° West 400 460 18,600 -2,520 Descending Houston Center
09:04AM 29.5206 -94.0133 273° West 394 453 17,600 -1,980 Descending Houston Center
09:05AM 29.5217 -94.0728 271° West 380 437 16,800 -1,920 Descending Houston Center
09:05AM 29.5247 -94.1356 273° West 386 444 15,700 -2,100 Descending Houston Center
09:06AM 29.5278 -94.1944 273° West 381 438 14,700 -1,800 Descending Houston Center
09:06AM 29.5303 -94.2508 273° West 380 437 13,900 -1,680 Descending Houston Center
09:06AM 29.5306 -94.3072 270° West 378 435 13,200 -900 Descending Houston Center
09:07AM 29.5447 -94.3664 285° West 370 426 13,000 -900 Descending Houston Center
09:08AM 29.5672 -94.4225 295° West 366 421 12,200 -1,380 Descending Houston Center
09:08AM 29.5889 -94.4728 296° West 371 427 11,600 -1,620 Descending Houston Center
09:09AM 29.6136 -94.5319 296° West 370 426 10,600 -1,500 Descending Houston Center
09:09AM 29.6331 -94.5772 296° West 367 422 10,100 -600 Descending Houston Center
09:10AM 29.6550 -94.6325 295° West 355 409 10,000 -120 Descending Houston Center
09:10AM 29.6761 -94.6769 299° West 354 407 10,000 -120 Level Houston Center
09:11AM 29.7036 -94.7419 296° West 322 371 9,900 -420 Descending Houston Center
09:11AM 29.7139 -94.7667 296° West 315 362 9,600 -1,440 Descending Houston Center
09:12AM 29.7336 -94.8150 295° West 266 306 8,600 -2,100 Descending Houston Center
09:12AM 29.7528 -94.8594 296° West 274 315 7,500 -1,800 Descending Houston Center
09:13AM 29.7664 -94.8928 295° West 265 305 6,800 -1,380 Descending Houston Center
09:13AM 29.7853 -94.9356 297° West 268 308 6,100 -780 Descending Houston Center
09:14AM 29.8039 -94.9797 296° West 262 302 6,000 -240 Descending Houston Center
09:14AM 29.8161 -95.0097 295° West 261 300 5,900  Descending Houston Center
09:15AM 29.8261 -95.0372 293° West 263 303 6,000 60 Climbing Houston Center
09:15AM 29.8486 -95.0844 299° West 263 303 6,000  Level Houston Center
09:16AM 29.8636 -95.1242 294° West 262 302 6,000  Level Houston Center
09:16AM 29.8800 -95.1597 298° West 264 304 6,000  Level Houston Center
09:17AM 29.8933 -95.1953 293° West 263 303 6,000 60 Level Houston Center
09:17AM 29.8997 -95.2375 280° West 258 297 6,100 -120 Climbing Houston Center
09:18AM 29.8992 -95.2811 269° West 252 290 5,900  Descending Houston Center
09:18AM 29.8997 -95.3169 271° West 252 290 6,100 60 Climbing Houston Center
09:19AM 29.9000 -95.3583 270° West 255 293 6,000 -120 Descending Houston Center
09:19AM 29.9008 -95.4147 271° West 254 292 6,000  Level Houston Center
09:20AM 29.9000 -95.4497 268° West 257 296 6,000 -900 Level Houston Center
09:20AM 29.9008 -95.4964 271° West 256 295 5,100 -1,680 Descending Houston Center
09:21AM 29.9008 -95.5292 270° West 254 292 4,300 -1,800 Descending Houston Center
09:21AM 29.9022 -95.5764 272° West 254 292 3,300 -1,320 Descending Houston Center
09:22AM 29.9322 -95.5978 328° Northwest 269 310 3,000 -420 Descending Houston Center
09:22AM 29.9678 -95.5792 24° Northeast 262 302 2,900 -120 Descending Houston Center
09:23AM 29.9861 -95.5650 34° Northeast 249 287 2,900 -120 Level Houston Center
09:23AM 29.9944 -95.5233 77° East 232 267 2,800 -420 Descending Houston Center
09:24AM 29.9928 -95.5014 95° East 187 215 2,500 -1,020 Descending Houston Center
09:24AM 29.9928 -95.4611 90° East 206 237 1,800 -1,020 Descending Houston Center
09:25AM 29.9936 -95.4386 88° East 190 219 1,500 -1,080 Descending Houston Center